Terminal Aerodrome Forecast
Issued by NWS Bismarck, ND

Home | Current Version | Previous Version | Graphics & Text | Print | Product List | Glossary On
Versions: 1 2 3 4 5 6 7 8 9 10 11 12 13 14 15 16 17 18 19
934
FTUS43 KBIS 111124
TAFBIS
TAF
KBIS 111124Z 1112/1212 15004KT P6SM -SN OVC025
     FM111300 13004KT 3SM -SN BR OVC010
     FM111500 13004KT 2SM -SN BR OVC008
     FM112100 03005KT 5SM -SN OVC010
     FM112300 01006KT P6SM VCSH OVC015
     FM120600 36007KT P6SM BKN035=

USA.gov is the U.S. government's official web portal to all federal, state and local government web resources and services.